Flag for Germany Weather past 2 weeks in Rendsburg, Schleswig-Holstein, Germany

Now
72 °F

Mild.


Feels Like: 74 °F
Forecast: 61 / 78 °F
Wind: 5 mph from Southeast

Location: Hohn

Current Time: Jul 26, 2014 at 9:15:54 PM

Latest Report: Jul 26, 2014 at 8:20 PM


Visibility: 6 mi

Pressure: 29.95 "Hg

Humidity: 73%

Dew point: 63 °F

Location of RendsburgLocation

Historic Weather in Rendsburg — Graph

°F

Rendsburg temperature yesterday

Maximum temperature yesterday: 84 °F (at 3:20 PM)
Minimum temperature yesterday: 63 °F (at 1:20 AM)
Average temperature yesterday: 73 °F

Past Weeks' High & Low Weather Summary

 TemperatureHumidityPressure
High88 °F (Jul 19, 2:20 PM)100% (Jul 16, 6:20 AM)30.21 "Hg (Jul 16, 6:20 AM)
Low48 °F (Jul 17, 4:20 AM)30% (Jul 25, 5:20 PM)29.62 "Hg (Jul 13, 6:20 PM)
Average69 °F69%30.00 "Hg
* Reported Jul 11 7:20 PM — Jul 26 7:20 PM, Rendsburg, Weather by CustomWeather, © 2014

Note: Actual official high and low records may vary slightly from our data, if they occured in-between our weather recording intervals... More about our weather records

Advertising

Rendsburg weather history for previous 24 hours

 ConditionsComfort  
Time TempWeatherWind HumidityBarometerVisibility
7:20 PM
Jul 26
75 °FMild.3 mph65%29.92 "Hg5 mi
6:20 PM77 °FWarm.5 mph57%29.92 "Hg4 mi
5:20 PM77 °FWarm.5 mph65%29.92 "Hg4 mi
4:20 PM73 °FMild.6 mph74%29.92 "Hg5 mi
3:20 PM77 °FWarm.8 mph61%29.92 "Hg5 mi
2:20 PM75 °FMild.10 mph69%29.95 "Hg5 mi
1:20 PM75 °FMild.6 mph65%29.95 "Hg5 mi
12:20 PM73 °FMild.9 mph69%29.98 "Hg6 mi
11:20 AM72 °FMild.9 mph73%29.95 "Hg5 mi
10:20 AM68 °FMild.7 mph88%29.98 "Hg4 mi
9:20 AM68 °FMild.8 mph88%29.98 "Hg3 mi
8:20 AM66 °FMild.10 mph88%29.95 "Hg2 mi
7:20 AM70 °FMild.10 mph78%29.95 "Hg5 mi
6:20 AM68 °FMild.7 mph88%29.95 "Hg4 mi
5:20 AM64 °FMild.3 mph94%29.95 "Hg4 mi
4:20 AM66 °FMild.5 mph83%29.95 "Hg4 mi
3:20 AM68 °FMild.8 mph83%29.98 "Hg4 mi
2:20 AM68 °FMild.8 mph83%29.98 "Hg4 mi
1:20 AM68 °FMild.9 mph83%29.98 "Hg4 mi
12:20 AM70 °FMild.9 mph78%29.98 "Hg5 mi
11:20 PM
Jul 25
72 °FMild.12 mph73%29.98 "Hg4 mi
10:20 PM73 °FMild.12 mph65%29.98 "Hg4 mi
9:20 PM75 °FMild.8 mph61%29.98 "Hg5 mi
Weather by CustomWeather, © 2014

See weather overviewHow to use our weather pages